Regional Weather Roundup
Issued by NWS

Home | Current Version | Previous Version | Text Only | Print | Product List | Glossary Off
Versions: 1 2 3 4 5 6 7 8 9 10 11 12 13 14 15 16 17 18 19 20 21 22 23 24 25 26 27 28 29 30 31 32 33 34 35 36 37 38 39 40 41 42 43 44 45 46 47 48 49 50

000
ASUS43 KDMX 200901
RWRIA

WEATHER ROUNDUP FOR IOWA
NATIONAL WEATHER SERVICE DES MOINES IA
400 AM CDT FRI APR 20 2018

NOTE: "FAIR" INDICATES FEW OR NO CLOUDS BELOW 12,000 FEET WITH NO
SIGNIFICANT WEATHER AND/OR OBSTRUCTIONS TO VISIBILITY.

* - THESE STATIONS ARE NOT NWS STATIONS...THUS NOT UNDER NWS
QUALITY CONTROL.  THEY ALSO DO NOT REPORT WEATHER SUCH
AS PRECIPITATION OR FOG.

IAZ001>003-012>014-020>022-031>034-043>046-201000-
   NORTHWEST IOWA

CITY           SKY/WX    TMP DP  RH WIND       PRES   REMARKS
CARROLL *      CLOUDY    28  28 100 CALM      30.45S
CHEROKEE *     CLOUDY    26  22  85 CALM      30.45S
DENISON *      CLOUDY    32  27  80 E8        30.45S WCI  25
LE MARS *      PTCLDY    32  23  69 CALM      30.43S
ORANGE CITY *  CLOUDY    30  21  69 E5        30.43S WCI  25
SHELDON *      CLOUDY    28  25  86 SE8       30.42S WCI  20
SIOUX CITY     PTCLDY    31  24  75 E9        30.42F WCI  23
SPENCER        CLOUDY    23  18  81 CALM      30.45F
STORM LAKE *   CLOUDY    30  23  74 SE9       30.44S WCI  22
$$

IAZ055>058-069>071-079>083-090>094-201000-
   SOUTHWEST IOWA

CITY           SKY/WX    TMP DP  RH WIND       PRES   REMARKS
ATLANTIC *     CLOUDY    32  27  80 NE3       30.45R
AUDUBON *      CLOUDY    28  25  86 CALM      30.45S
CLARINDA *     CLOUDY    34  25  69 CALM      30.46S
COUNCIL BLFS * CLOUDY    36  28  75 E8        30.42S WCI  29
CRESTON *      CLOUDY    32  25  74 E9        30.45S WCI  24
HARLAN  *      CLOUDY    32  28  86 CALM      30.47S
LAMONI         CLOUDY    34  24  67 NE5       30.44R WCI  30
RED OAK *      CLOUDY    36  27  69 CALM      30.44R
SHENANDOAH *   CLOUDY    34  27  75 NE5       30.44R WCI  30
$$

IAZ047>049-059>061-072>074-084-201000-
   CENTRAL IOWA

CITY           SKY/WX    TMP DP  RH WIND       PRES   REMARKS
AMES           CLOUDY    30  26  85 CALM      30.48R
ANKENY *       CLOUDY    27  25  93 N3        30.49R
BOONE *        PTCLDY    30  27  86 E6        30.46S WCI  24
CHARITON *     CLOUDY    32  25  74 E6        30.46R WCI  26
DES MOINES     CLOUDY    35  24  64 E6        30.47R WCI  30
GRINNELL*      CLOUDY    32  24  73 NE6       30.48S WCI  26
KNOXVILLE *    CLOUDY    34  25  69 E6        30.46R WCI  29
MARSHALLTOWN   CLOUDY    28  25  88 CALM      30.48R
NEWTON *       CLOUDY    32  23  69 NE7       30.48R WCI  26
PELLA *        CLOUDY    32  24  72 CALM      30.49R
$$

IAZ004>006-015-016-023>025-035-036-201000-
   NORTH CENTRAL IOWA

CITY           SKY/WX    TMP DP  RH WIND       PRES   REMARKS
ALGONA *       CLOUDY    21  21 100 CALM      30.46S
CLARION *      CLOUDY    27  23  86 E5        30.47S WCI  21
ESTHERVILLE    CLOUDY    16  13  88 CALM      30.45F
FORT DODGE *   CLOUDY    27  25  92 CALM      30.47S
MASON CITY     CLOUDY    21  17  84 CALM      30.49S
FOREST CITY *  FOG       19  19 100 CALM      30.47S VSB 1/4
WEBSTER CITY * CLOUDY    30  28  93 CALM      30.45S
IOWA FALLS *   FAIR      31  27  85 CALM      30.48S
$$

IAZ007>011-017>019-026>030-037>042-050>054-066-201000-
   NORTHEAST IOWA

CITY           SKY/WX    TMP DP  RH WIND       PRES   REMARKS
CEDAR RAPIDS   FAIR      28  23  81 N7        30.47R WCI  21
CHARLES CITY * FAIR      25  25 100 NE6       30.49R WCI  18
CLINTON *      FAIR      27  24  89 N9        30.50R WCI  18
DECORAH *      FAIR      27  23  86 CALM      30.48R
DUBUQUE        FAIR      28  21  75 CALM      30.48R
MONTICELLO *   FAIR      25  25 100 CALM      30.49R
OELWEIN *      FAIR      28  28 100 NE5       30.49R WCI  23
WATERLOO       FAIR      23  21  92 CALM      30.49R
$$

IAZ064-065-067-068-078-201000-
   EAST CENTRAL IOWA

CITY           SKY/WX    TMP DP  RH WIND       PRES   REMARKS
DAVENPORT      FAIR      29  25  85 N5        30.50R WCI  24
IOWA CITY      FAIR      29  23  78 CALM      30.50R
MT. PLEASANT * CLOUDY    30  25  80 N6        30.48R WCI  24
MUSCATINE *    FAIR      30  25  80 CALM      30.50R
QUAD CITIES    FAIR      27  24  89 CALM      30.48R
$$

IAZ062-063-075>077-085>089-095>099-201000-
   SOUTHEAST IOWA

CITY           SKY/WX    TMP DP  RH WIND       PRES   REMARKS
BURLINGTON     CLEAR     36  24  62 NE3       30.46S
FAIRFIELD *    CLOUDY    28  23  80 NE7       30.47R WCI  21
FORT MADISON * CLEAR     37  27  65 E3        30.47S
KEOKUK *       CLEAR     34  28  80 NE5       30.46R WCI  30
OSKALOOSA *    FAIR      29  23  81 NE7       30.48R WCI  21
CENTERVILLE *    N/A     34  27  75 CALM      30.47R
OTTUMWA        CLEAR     32  23  69 NE7       30.47S WCI  26
WASHINGTON *   CLOUDY    32  27  80 N6        30.49R WCI  26
$$

ABBREVIATIONS USED IN REMARKS
   TC - TEMPERATURES IN CELSIUS
  WCI - WIND CHILL INDEX
   HX - HEAT INDEX
  VSB - VISIBILITY
$$





USA.gov is the U.S. government's official web portal to all federal, state and local government web resources and services.